• In Hungary
  • List of Countries
  • For 7 days
  • Water Temperature
  • Satellite Maps
  • Weather Map
  • News
  • Weather Widgets
  • user-avatar
    Login

    Hourly Weather Verhniy Nugush

    Today, 21 May, Monday

    Time Temperature Precipitation Wind Pressure Humidity
    00:00 +15°C° 0.2 mm 1 mps 732 mmHg 92%
    01:00 +15°C° 0.2 mm 1 mps 733 mmHg 93%
    02:00 +15°C° 0 mm 1 mps 733 mmHg 93%
    03:00 +14°C° 0 mm 1 mps 733 mmHg 94%
    04:00 +14°C° 0 mm 1 mps 733 mmHg 94%
    05:00 +15°C° 0 mm 1 mps 733 mmHg 91%
    06:00 +18°C° 0 mm 1 mps 733 mmHg 89%
    07:00 +19°C° 0 mm 1 mps 734 mmHg 86%
    08:00 +20°C° 0.2 mm 1 mps 734 mmHg 81%
    09:00 +20°C° 0.2 mm 2 mps 734 mmHg 77%
    10:00 +21°C° 0 mm 3 mps 735 mmHg 71%
    11:00 +21°C° 0.6 mm 3 mps 735 mmHg 69%
    12:00 +21°C° 0.6 mm 3 mps 735 mmHg 68%
    13:00 +21°C° 0.6 mm 3 mps 735 mmHg 66%
    14:00 +21°C° 0.2 mm 3 mps 735 mmHg 64%
    15:00 +21°C° 0.2 mm 3 mps 735 mmHg 63%
    16:00 +21°C° 0 mm 3 mps 735 mmHg 64%
    17:00 +19°C° 0 mm 3 mps 735 mmHg 68%
    18:00 +18°C° 0 mm 4 mps 735 mmHg 71%
    19:00 +15°C° 0 mm 4 mps 735 mmHg 74%
    20:00 +14°C° 0 mm 4 mps 736 mmHg 77%
    21:00 +12°C° 0 mm 3 mps 736 mmHg 80%
    22:00 +11°C° 0 mm 3 mps 737 mmHg 83%
    23:00 +10°C° 0 mm 3 mps 737 mmHg 85%

    Tomorrow, 22 May, Tuesday

    Time Temperature Precipitation Wind Pressure Humidity
    00:00 +9°C° 0 mm 3 mps 737 mmHg 88%
    01:00 +8°C° 0 mm 3 mps 738 mmHg 90%
    02:00 +7°C° 0 mm 2 mps 738 mmHg 90%
    03:00 +7°C° 0 mm 2 mps 738 mmHg 89%
    04:00 +6°C° 0 mm 2 mps 738 mmHg 89%
    05:00 +8°C° 0 mm 3 mps 739 mmHg 78%
    06:00 +9°C° 0 mm 3 mps 739 mmHg 68%
    07:00 +11°C° 0 mm 3 mps 740 mmHg 57%
    08:00 +12°C° 0 mm 4 mps 740 mmHg 51%
    09:00 +14°C° 0 mm 4 mps 740 mmHg 45%
    10:00 +17°C° 0 mm 4 mps 740 mmHg 39%
    11:00 +18°C° 0 mm 4 mps 740 mmHg 39%
    12:00 +19°C° 0 mm 4 mps 740 mmHg 39%
    13:00 +19°C° 0 mm 4 mps 740 mmHg 39%
    14:00 +20°C° 0 mm 4 mps 740 mmHg 41%
    15:00 +20°C° 0 mm 5 mps 740 mmHg 44%
    16:00 +20°C° 0 mm 5 mps 740 mmHg 46%
    17:00 +19°C° 0 mm 4 mps 740 mmHg 52%
    18:00 +18°C° 0 mm 3 mps 740 mmHg 58%
    19:00 +17°C° 0 mm 3 mps 740 mmHg 64%
    20:00 +16°C° 0 mm 2 mps 740 mmHg 72%
    21:00 +14°C° 0 mm 2 mps 740 mmHg 79%
    22:00 +13°C° 0 mm 1 mps 740 mmHg 86%
    23:00 +12°C° 0 mm 1 mps 740 mmHg 88%

    Day after tomorrow, 23 May, Wednesday

    Time Temperature Precipitation Wind Pressure Humidity
    00:00 +12°C° 0 mm 1 mps 740 mmHg 90%
    01:00 +11°C° 0 mm 1 mps 740 mmHg 92%
    02:00 +11°C° 0 mm 1 mps 740 mmHg 92%
    03:00 +11°C° 0 mm 1 mps 741 mmHg 92%
    04:00 +10°C° 0 mm 0 mps 741 mmHg 92%
    05:00 +12°C° 0 mm 0 mps 741 mmHg 85%
    06:00 +15°C° 0 mm 1 mps 741 mmHg 77%
    07:00 +18°C° 0 mm 1 mps 742 mmHg 69%
    08:00 +20°C° 0 mm 1 mps 742 mmHg 62%
    09:00 +22°C° 0 mm 1 mps 742 mmHg 55%
    10:00 +24°C° 0 mm 2 mps 742 mmHg 49%
    11:00 +25°C° 0 mm 2 mps 742 mmHg 46%
    12:00 +26°C° 0 mm 2 mps 742 mmHg 44%
    13:00 +27°C° 0 mm 2 mps 742 mmHg 41%
    14:00 +27°C° 0 mm 3 mps 741 mmHg 42%
    15:00 +27°C° 0 mm 3 mps 741 mmHg 43%
    16:00 +27°C° 0 mm 3 mps 740 mmHg 43%
    17:00 +25°C° 0 mm 2 mps 740 mmHg 50%
    18:00 +24°C° 0 mm 2 mps 740 mmHg 56%
    19:00 +23°C° 0 mm 2 mps 740 mmHg 63%
    20:00 +21°C° 0 mm 1 mps 739 mmHg 69%
    21:00 +19°C° 0 mm 1 mps 739 mmHg 74%
    22:00 +16°C° 0 mm 1 mps 739 mmHg 80%
    23:00 +16°C° 0 mm 1 mps 739 mmHg 82%

    24 May, Thursday

    Time Temperature Precipitation Wind Pressure Humidity
    00:00 +15°C° 0 mm 1 mps 738 mmHg 84%
    01:00 +15°C° 0 mm 1 mps 738 mmHg 86%
    02:00 +14°C° 0 mm 1 mps 738 mmHg 86%
    03:00 +14°C° 0 mm 1 mps 738 mmHg 87%
    04:00 +14°C° 0 mm 1 mps 738 mmHg 88%
    05:00 +15°C° 0 mm 1 mps 737 mmHg 82%
    06:00 +17°C° 0 mm 2 mps 737 mmHg 75%
    07:00 +19°C° 0 mm 2 mps 737 mmHg 69%
    08:00 +21°C° 0 mm 3 mps 737 mmHg 62%
    09:00 +22°C° 0 mm 3 mps 737 mmHg 56%
    10:00 +25°C° 0 mm 4 mps 736 mmHg 49%
    11:00 +26°C° 0 mm 4 mps 736 mmHg 47%
    12:00 +26°C° 0 mm 5 mps 735 mmHg 44%
    13:00 +27°C° 0 mm 5 mps 735 mmHg 41%
    14:00 +27°C° 0 mm 5 mps 734 mmHg 41%
    15:00 +27°C° 0 mm 5 mps 734 mmHg 40%
    16:00 +27°C° 0 mm 5 mps 733 mmHg 40%
    17:00 +26°C° 0 mm 4 mps 733 mmHg 46%
    18:00 +25°C° 0 mm 3 mps 732 mmHg 52%
    19:00 +23°C° 0 mm 2 mps 732 mmHg 57%
    20:00 +21°C° 0 mm 2 mps 731 mmHg 62%
    21:00 +19°C° 0 mm 2 mps 731 mmHg 66%
    22:00 +17°C° 0 mm 2 mps 731 mmHg 70%
    23:00 +17°C° 0 mm 2 mps 730 mmHg 72%

    25 May, Friday

    Time Temperature Precipitation Wind Pressure Humidity
    00:00 +16°C° 0 mm 1 mps 730 mmHg 73%
    01:00 +16°C° 0 mm 1 mps 729 mmHg 74%
    02:00 +16°C° 0 mm 1 mps 729 mmHg 75%
    03:00 +16°C° 0 mm 2 mps 728 mmHg 75%
    04:00 +15°C° 0 mm 2 mps 728 mmHg 76%
    05:00 +16°C° 0 mm 2 mps 728 mmHg 75%
    06:00 +17°C° 0 mm 2 mps 727 mmHg 75%
    07:00 +17°C° 0 mm 3 mps 727 mmHg 75%
    08:00 +18°C° 0.1 mm 3 mps 727 mmHg 71%
    09:00 +20°C° 0.1 mm 4 mps 727 mmHg 67%
    10:00 +21°C° 0.1 mm 5 mps 726 mmHg 63%
    11:00 +19°C° 1.7 mm 5 mps 726 mmHg 72%
    12:00 +17°C° 1.7 mm 5 mps 726 mmHg 81%
    13:00 +16°C° 1.7 mm 5 mps 726 mmHg 89%
    14:00 +14°C° 1.8 mm 4 mps 726 mmHg 91%
    15:00 +13°C° 1.8 mm 4 mps 727 mmHg 92%
    16:00 +12°C° 1.8 mm 4 mps 727 mmHg 93%
    17:00 +11°C° 0.2 mm 3 mps 727 mmHg 93%
    18:00 +10°C° 0.2 mm 3 mps 727 mmHg 93%
    19:00 +9°C° 0.2 mm 3 mps 727 mmHg 93%
    20:00 +9°C° 0.3 mm 3 mps 727 mmHg 93%
    21:00 +8°C° 0.3 mm 3 mps 727 mmHg 93%
    22:00 +8°C° 0.3 mm 3 mps 727 mmHg 93%
    23:00 +8°C° 0.3 mm 3 mps 727 mmHg 93%

    26 May, Saturday

    Time Temperature Precipitation Wind Pressure Humidity
    00:00 +7°C° 0.3 mm 3 mps 727 mmHg 94%
    01:00 +7°C° 0.3 mm 3 mps 727 mmHg 94%
    02:00 +7°C° 0.1 mm 3 mps 727 mmHg 93%
    03:00 +6°C° 0.1 mm 4 mps 727 mmHg 92%
    04:00 +6°C° 0.1 mm 4 mps 727 mmHg 92%
    05:00 +5°C° 0.3 mm 4 mps 727 mmHg 91%
    06:00 +5°C° 0.3 mm 5 mps 727 mmHg 90%
    07:00 +5°C° 0.3 mm 5 mps 727 mmHg 88%
    08:00 +5°C° 0.5 mm 6 mps 728 mmHg 85%
    09:00 +5°C° 0.5 mm 6 mps 728 mmHg 82%
    10:00 +5°C° 0.5 mm 7 mps 728 mmHg 79%
    11:00 +5°C° 0.4 mm 7 mps 728 mmHg 77%
    12:00 +6°C° 0.4 mm 7 mps 728 mmHg 76%
    13:00 +6°C° 0.4 mm 7 mps 729 mmHg 74%
    14:00 +6°C° 0.6 mm 7 mps 729 mmHg 75%
    15:00 +6°C° 0.6 mm 7 mps 729 mmHg 75%
    16:00 +7°C° 0.6 mm 6 mps 729 mmHg 75%
    17:00 +5°C° 0.8 mm 6 mps 729 mmHg 77%
    18:00 +6°C° 0.8 mm 5 mps 729 mmHg 79%
    19:00 +5°C° 0.8 mm 5 mps 730 mmHg 80%
    20:00 +5°C° 0.5 mm 5 mps 730 mmHg 81%
    21:00 +3°C° 0.5 mm 5 mps 730 mmHg 81%
    22:00 +3°C° 0.5 mm 5 mps 730 mmHg 81%
    23:00 +3°C° 0.5 mm 5 mps 730 mmHg 80%
    Show more